User: anonymous   Login
Location: Nag� el Ma?a??a
(24.0667°N, 32.8833°E)
Time: 18:11:56
(UTC+00:00)
Language:

Cosmos 1356 Rocket - Orbit

View from above orbital plane
View from above orbital plane
View from above satellite
View from above satellite

Ground track
Ground track

The orbit data is extracted from the following two-line orbital elements,

1 13154U 82039B   21334.12164200  .00000361  00000-0  27477-4 0  9996
2 13154  81.1834 192.7075 0040595  33.6907 326.6880 14.99036114147411
Epoch (UTC): 30 November 2021 02:55:09
Eccentricity: 0.0040595
inclination: 81.1834°
perigee height: 541 km
apogee height: 598 km
right ascension of ascending node: 192.7075°
argument of perigee: 33.6907°
revolutions per day: 14.99036114
mean anomaly at epoch: 326.6880°
orbit number at epoch: 14741

The dashed part of the orbit path shows where the satellite is in the earth's shadow,  

DLR